Weather Roundup
Issued by NWS

Home | Current Version | Previous Version | Text Only | Print | Product List | Glossary On
Versions: 1 2 3 4 5 6 7 8 9 10 11 12 13 14 15 16 17 18 19 20 21 22 23 24 25 26 27 28 29 30 31 32 33 34 35 36 37 38 39 40 41 42 43 44 45 46 47 48 49 50
000
NZUS93 KARX 312159
HRRWXR

CURRENT HOURLY OBSERVATIONS ACROSS
MUCH OF THE UPPER MISSISSIPPI VALLEY
NATIONAL WEATHER SERVICE LA CROSSE WI
400 PM CST SAT JAN 31 2015


...SOUTHEAST MINNESOTA...


CITY           SKY/WX    TMP DP  RH WIND       PRES   REMARKS
ROCHESTER      CLOUDY    29  23  78 NE12      30.12F WCI  19
ROCHESTER/MAYO CLOUDY    30  23  74 NE6       30.13F WCI  24
WINONA         CLOUDY    32  23  69 NE5       30.18S WCI  27
AUSTIN         CLOUDY    30  27  86 E8        30.11S WCI  23
ALBERT LEA     CLOUDY    30  27  86 E10       30.10F WCI  21
DODGE CENTER   CLOUDY    28  25  86 NE10      30.12F WCI  19
PRESTON        CLOUDY    28  24  85 NE9       30.13S WCI  20
OWATONNA       CLOUDY    28  25  86 NE10      30.13F WCI  19
FARIBAULT      CLOUDY    28  23  80 NE9       30.15F WCI  20
$$

...ELSEWHERE IN MINNESOTA...


CITY           SKY/WX    TMP DP  RH WIND       PRES   REMARKS
MINNEAPOLIS    CLOUDY    28  17  63 NE9       30.19S WCI  19
INTNL FALLS    CLEAR      4  -8  57 N12       30.36R WCI -12
DULUTH         CLEAR     18  -2  41 N9        30.22F WCI   7
RED WING       CLOUDY    28  21  74 NE7       30.18S WCI  21
REDWOOD FALLS  CLOUDY    27  21  78 NE7       30.15F WCI  19
MANKATO        CLOUDY    28  23  80 NE12      30.13F WCI  18
WORTHINGTON    CLOUDY    27  23  86 NE15      30.07F WCI  15
FAIRMONT       CLOUDY    28  25  86 NE12      30.09S WCI  18
$$

...SOUTHWEST WISCONSIN...


CITY           SKY/WX    TMP DP  RH WIND       PRES   REMARKS
LA CROSSE      CLOUDY    32  23  69 N3        30.16F
PRAIRIE DU CHI CLOUDY    34  23  64 CALM      30.14F
BOSCOBEL       CLOUDY    35  24  64 CALM      30.16S
LONE ROCK      NOT AVBL
PLATTEVILLE    CLOUDY    33  26  74 CALM      30.13S
FORT MC COY    CLOUDY    30  22  73 N7        30.18S WCI  23
CAMP DOUGLAS   CLOUDY    30  27  86 N6        30.16S WCI  24
VIROQUA        CLOUDY    29  25  82 NE5       30.13S WCI  24
WIS DELLS      NOT AVBL
$$

...ELSEWHERE IN WISCONSIN...


CITY           SKY/WX    TMP DP  RH WIND       PRES   REMARKS
MILWAUKEE      CLOUDY    33  21  61 E5        30.17R WCI  29
MADISON        CLOUDY    34  23  64 N5        30.15S WCI  30
GREEN BAY      CLOUDY    28  19  69 NW3       30.19R
EAU CLAIRE     CLOUDY    28  18  66 NE3       30.19R
BLACK RVR FLS  CLOUDY    30  20  67 NE6       30.17S WCI  24
MEDFORD        CLOUDY    24  17  74 N9        30.14S WCI  14
WAUSAU         CLOUDY    26  17  68 N5        30.15R WCI  20
WIS RAPIDS     CLOUDY    28  18  66 N8        30.18S WCI  20
MARSHFIELD     CLOUDY    28  18  66 N3        30.16S
RICE LAKE      MOCLDY    25  15  65 N12       30.20S WCI  14
$$

...NORTHEAST IOWA...


CITY           SKY/WX    TMP DP  RH WIND       PRES   REMARKS
DECORAH        CLOUDY    32  25  74 NE6       30.12R WCI  26
MASON CITY     CLOUDY    31  28  89 NE9       30.10F FOG     WCI  23
CHARLES CITY   CLOUDY    32  28  86 E8        30.11F WCI  25
OELWEIN        CLOUDY    36  32  87 SW3       30.11S
$$

...ELSEWHERE IN IOWA...


CITY           SKY/WX    TMP DP  RH WIND       PRES   REMARKS
DES MOINES     LGT RAIN  38  35  89 S9        30.08F WCI  31
IOWA CITY      LGT RAIN  37  36  96 S3        30.15F FOG
FORT DODGE     CLOUDY    32  30  93 CALM      30.07S VSB 1
$$

...NORTHERN ILLINOIS...


CITY           SKY/WX    TMP DP  RH WIND       PRES   REMARKS
CHICAGO-OHARE  CLOUDY    36  26  67 W6        30.16S WCI  31
CHICAGO-MIDWAY CLOUDY    38  27  64 SW9       30.17S WCI  31
MOLINE         FOG       36  34  92 SW7       30.16S VSB 1   WCI  30
ROCKFORD       CLOUDY    36  26  67 N3        30.17S
PEORIA         LGT RAIN  36  32  85 SW8       30.20S FOG     WCI  30
$$

NOTE: "FAIR" INDICATES FEW OR NO CLOUDS BELOW 12,000 FEET WITH NO
SIGNIFICANT WEATHER AND/OR OBSTRUCTIONS TO VISIBILITY. WIND
SPEEDS ARE IN MILES-PER-HOUR.



USA.gov is the U.S. government's official web portal to all federal, state and local government web resources and services.